TimeAKST,TemperatureF,Dew PointF,Humidity,Sea Level PressureIn,VisibilityMPH,Wind Direction,Wind SpeedMPH,Gust SpeedMPH,PrecipitationIn,Events,Conditions,WindDirDegrees,DateUTC
12:16 AM,41.0,41.0,100,29.02,1.8,SE,13.8,20.7,N/A,,Overcast,140,2013-01-29 09:16:00
12:36 AM,39.2,39.2,100,29.04,1.5,SSE,16.1,23.0,N/A,,Overcast,150,2013-01-29 09:36:00
12:56 AM,39.2,39.2,100,29.04,2.0,SE,16.1,23.0,N/A,,Overcast,140,2013-01-29 09:56:00
1:16 AM,39.2,39.2,100,29.04,1.8,SE,13.8,23.0,N/A,,Overcast,140,2013-01-29 10:16:00
1:36 AM,39.2,39.2,100,29.05,1.5,SE,16.1,21.9,N/A,,Overcast,140,2013-01-29 10:36:00
1:56 AM,39.2,39.2,100,29.06,1.5,SSE,18.4,24.2,N/A,,Overcast,150,2013-01-29 10:56:00
2:16 AM,39.2,39.2,100,29.07,2.0,SE,16.1,-,N/A,,Overcast,140,2013-01-29 11:16:00
2:56 AM,39.2,39.2,100,29.08,2.0,SE,15.0,20.7,N/A,,Overcast,140,2013-01-29 11:56:00
3:16 AM,39.2,39.2,100,29.08,3.0,SSE,15.0,-,N/A,,Overcast,150,2013-01-29 12:16:00
3:36 AM,39.2,37.4,93,29.10,2.5,South,20.7,-,N/A,,Overcast,170,2013-01-29 12:36:00
3:56 AM,39.2,37.4,93,29.11,2.5,SSE,18.4,24.2,N/A,,Overcast,160,2013-01-29 12:56:00
4:16 AM,39.2,37.4,93,29.11,3.0,SSE,20.7,-,N/A,,Overcast,160,2013-01-29 13:16:00
4:36 AM,39.2,37.4,93,29.12,3.0,South,23.0,26.5,N/A,,Overcast,170,2013-01-29 13:36:00
5:16 AM,39.2,39.2,100,29.14,3.0,South,24.2,-,N/A,,Overcast,170,2013-01-29 14:16:00
5:36 AM,39.2,39.2,100,29.14,5.0,South,23.0,31.1,N/A,,Overcast,170,2013-01-29 14:36:00
5:56 AM,39.2,39.2,100,29.14,3.0,South,26.5,29.9,N/A,,Overcast,170,2013-01-29 14:56:00
6:16 AM,39.2,39.2,100,29.15,3.0,South,21.9,26.5,N/A,,Overcast,170,2013-01-29 15:16:00
6:36 AM,37.4,37.4,100,29.16,2.0,South,25.3,-,N/A,,Overcast,170,2013-01-29 15:36:00
6:56 AM,37.4,37.4,100,29.17,5.0,South,24.2,28.8,N/A,,Overcast,170,2013-01-29 15:56:00
7:16 AM,39.2,39.2,100,29.17,10.0,SSE,17.3,-,N/A,,Overcast,160,2013-01-29 16:16:00
7:36 AM,37.4,37.4,100,29.17,5.0,SSE,15.0,-,N/A,,Overcast,150,2013-01-29 16:36:00
7:56 AM,37.4,37.4,100,29.18,5.0,SSE,12.7,18.4,N/A,,Overcast,150,2013-01-29 16:56:00
8:16 AM,37.4,37.4,100,29.18,4.0,SSE,12.7,19.6,N/A,,Overcast,150,2013-01-29 17:16:00
8:36 AM,37.4,37.4,100,29.18,5.0,SSE,13.8,-,N/A,,Overcast,160,2013-01-29 17:36:00
8:56 AM,37.4,37.4,100,29.19,4.0,SSE,16.1,-,N/A,,Overcast,150,2013-01-29 17:56:00
9:16 AM,37.4,37.4,100,29.20,3.0,SSE,15.0,-,N/A,,Overcast,160,2013-01-29 18:16:00
9:36 AM,39.2,39.2,100,29.21,2.0,SSE,11.5,-,N/A,,Overcast,150,2013-01-29 18:36:00
9:56 AM,37.4,37.4,100,29.22,1.0,SSE,10.4,-,N/A,,Overcast,160,2013-01-29 18:56:00
10:16 AM,39.2,39.2,100,29.22,1.0,SSE,13.8,-,N/A,,Overcast,150,2013-01-29 19:16:00
10:36 AM,39.2,39.2,100,29.22,1.5,SE,16.1,23.0,N/A,,Overcast,140,2013-01-29 19:36:00
10:56 AM,39.2,39.2,100,29.23,2.0,SSE,17.3,23.0,N/A,,Overcast,150,2013-01-29 19:56:00
11:16 AM,39.2,39.2,100,29.24,4.0,SSE,17.3,23.0,N/A,,Overcast,150,2013-01-29 20:16:00
11:36 AM,41.0,41.0,100,29.25,3.0,SSE,17.3,21.9,N/A,,Overcast,150,2013-01-29 20:36:00
11:56 AM,39.2,39.2,100,29.25,0.8,SE,12.7,-,N/A,,Overcast,140,2013-01-29 20:56:00
12:16 PM,39.2,39.2,100,29.27,1.0,SE,12.7,17.3,N/A,,Overcast,140,2013-01-29 21:16:00
12:36 PM,39.2,39.2,100,29.27,1.0,SE,10.4,-,N/A,,Overcast,140,2013-01-29 21:36:00
12:56 PM,39.2,39.2,100,29.28,2.0,SE,11.5,18.4,N/A,,Overcast,140,2013-01-29 21:56:00
1:16 PM,39.2,39.2,100,29.28,3.0,SSE,12.7,17.3,N/A,,Overcast,150,2013-01-29 22:16:00
1:36 PM,39.2,39.2,100,29.27,4.0,SSE,12.7,-,N/A,,Mostly Cloudy,150,2013-01-29 22:36:00
1:56 PM,39.2,39.2,100,29.28,5.0,SSE,13.8,19.6,N/A,,Overcast,150,2013-01-29 22:56:00
2:16 PM,39.2,39.2,100,29.29,2.0,SE,17.3,21.9,N/A,,Overcast,140,2013-01-29 23:16:00
2:36 PM,39.2,39.2,100,29.30,1.2,SSE,13.8,-,N/A,,Overcast,150,2013-01-29 23:36:00
2:56 PM,39.2,37.4,93,29.29,2.5,SSE,13.8,-,N/A,,Overcast,150,2013-01-29 23:56:00
3:16 PM,39.2,37.4,93,29.29,3.0,South,19.6,-,N/A,,Overcast,170,2013-01-30 00:16:00
3:36 PM,39.2,39.2,100,29.30,5.0,South,18.4,-,N/A,,Overcast,170,2013-01-30 00:36:00
3:56 PM,39.2,39.2,100,29.31,10.0,South,20.7,-,N/A,,Mostly Cloudy,180,2013-01-30 00:56:00
4:16 PM,39.2,39.2,100,29.30,10.0,SSE,15.0,-,N/A,,Mostly Cloudy,150,2013-01-30 01:16:00
4:36 PM,39.2,39.2,100,29.30,10.0,SSE,12.7,-,N/A,,Mostly Cloudy,150,2013-01-30 01:36:00
4:56 PM,39.2,39.2,100,29.31,10.0,SE,15.0,-,N/A,,Mostly Cloudy,140,2013-01-30 01:56:00
5:16 PM,39.2,39.2,100,29.33,10.0,SSE,15.0,19.6,N/A,,Mostly Cloudy,150,2013-01-30 02:16:00
5:36 PM,37.4,37.4,100,29.34,10.0,SSE,15.0,19.6,N/A,,Mostly Cloudy,150,2013-01-30 02:36:00
5:56 PM,39.2,39.2,100,29.33,10.0,SSE,8.1,-,N/A,,Overcast,150,2013-01-30 02:56:00
6:16 PM,39.2,39.2,100,29.33,10.0,SE,9.2,16.1,N/A,,Overcast,140,2013-01-30 03:16:00
6:36 PM,39.2,39.2,100,29.33,10.0,SE,10.4,-,N/A,,Overcast,140,2013-01-30 03:36:00
6:56 PM,39.2,39.2,100,29.34,10.0,SE,6.9,-,N/A,,Overcast,140,2013-01-30 03:56:00
7:16 PM,39.2,39.2,100,29.33,10.0,SE,5.8,-,N/A,,Overcast,140,2013-01-30 04:16:00
7:36 PM,39.2,37.4,93,29.32,10.0,SSE,9.2,-,N/A,,Overcast,150,2013-01-30 04:36:00
7:56 PM,39.2,39.2,100,29.32,10.0,SSE,5.8,-,N/A,,Overcast,150,2013-01-30 04:56:00
8:16 PM,39.2,39.2,100,29.32,5.0,Calm,Calm,-,N/A,,Overcast,0,2013-01-30 05:16:00
8:36 PM,39.2,39.2,100,29.32,7.0,SE,8.1,-,N/A,,Overcast,140,2013-01-30 05:36:00
8:56 PM,39.2,37.4,93,29.31,6.0,SE,5.8,-,N/A,,Overcast,140,2013-01-30 05:56:00
9:16 PM,39.2,39.2,100,29.32,2.5,SSE,5.8,-,N/A,,Overcast,150,2013-01-30 06:16:00
9:36 PM,39.2,39.2,100,29.33,2.0,SE,6.9,-,N/A,,Overcast,140,2013-01-30 06:36:00
9:56 PM,39.2,39.2,100,29.31,7.0,Calm,Calm,-,N/A,,Overcast,0,2013-01-30 06:56:00
10:16 PM,41.0,41.0,100,29.31,8.0,SE,5.8,-,N/A,,Overcast,140,2013-01-30 07:16:00
10:36 PM,39.2,39.2,100,29.31,5.0,SE,6.9,-,N/A,,Overcast,140,2013-01-30 07:36:00
10:56 PM,39.2,39.2,100,29.32,8.0,Calm,Calm,-,N/A,,Overcast,0,2013-01-30 07:56:00
11:16 PM,41.0,41.0,100,29.32,5.0,SSE,5.8,-,N/A,,Overcast,150,2013-01-30 08:16:00
11:36 PM,41.0,41.0,100,29.31,6.0,SE,5.8,-,N/A,,Overcast,140,2013-01-30 08:36:00
11:56 PM,39.2,39.2,100,29.31,7.0,SSE,9.2,-,N/A,,Overcast,150,2013-01-30 08:56:00